Location: Pian di Sc�
(43.6333°N, 11.5500°E)
Time: 13:33:37
(UTC+00:00)

Resurs 1-4 Rocket - Pass Details

Date: 07 August 2020
Orbit: 799 x 815 km, 98.6° (Epoch: 24 September)

Event Time Altitude Azimuth Distance (km) Brightness Sun altitude
Rises 01:30:57 0° 7° (N) 3,333 6.3 -22.9°
Reaches altitude 10° 01:33:22 10° 2° (N) 2,395 5.3 -22.7°
Maximum altitude 01:38:22 45° 291° (WNW) 1,092 2.6 -22.2°
Enters shadow 01:39:23 40° 260° (W) 1,174 2.6 -22.0°
